Last 7 Days

Chair 1 Top - 9,875ft

Hourly Data | America/Los_Angeles
as of 3/5/24 5:22 AM PST
Date & Time Temp (°F) WindChill (°F) RH (%) Dew Pt (°F) Wet Bulb (°F) Wind Dir (°) Wind Spd (mph) Wind Gust (mph) Wind Gst Dir (°) Daily Min Temp (°F) Daily Max Temp (°F) Daily Max Wind (mph)
3/4/24 - 1400 16.4 0.1 96 15.4 16.1 S | 183 18.4 41.4 W | 275 9.9 16.7 117.6
3/4/24 - 1300 15.6 -3.1 96 14.6 15.4 S | 185 24.7 49.6 SSW | 210 9.9 16.4 117.6
3/4/24 - 1200 13.9 -7.7 96 13.0 13.7 S | 181 32.7 58.9 W | 261 9.9 14.8 117.6
3/4/24 - 1100 11.5 -13.4 95 9.8 11.3 S | 189 42.8 70.6 S | 191 9.9 12.3 117.6
3/4/24 - 1000 11.5 -15.0 93 9.8 11.3 SSW | 193 51.4 77.9 SSW | 193 9.9 12.3 117.6
3/4/24 - 0900 10.6 -17.0 92 8.8 10.4 SSW | 196 55.3 82.4 SW | 221 9.9 12.3 117.6
3/4/24 - 0800 10.1 -17.7 92 8.2 9.9 SSW | 201 55.3 87.9 SW | 231 9.9 12.3 117.6
3/4/24 - 0700 10.3 -17.6 92 8.4 10.1 SSW | 200 56.5 91.0 SSW | 205 10.0 12.3 117.6
3/4/24 - 0600 11.1 -16.8 92 9.3 10.9 SW | 214 58.8 113.1 SSW | 208 10.8 12.3 117.6
3/4/24 - 0500 11.4 -19.0 92 9.7 11.2 SW | 226 76.8 117.0 SW | 226 11.4 12.3 117.6
3/4/24 - 0400 11.8 -18.6 93 10.0 11.5 SW | 224 78.0 117.6 SW | 228 11.6 12.3 117.6
3/4/24 - 0300 12.1 -14.2 93 10.4 11.8 SW | 216 51.4 103.8 WSW | 247 11.7 12.3 111.0
3/4/24 - 0200 12.2 -15.2 93 10.5 11.9 SW | 224 58.4 107.6 SW | 235 12.1 12.3 111.0
3/4/24 - 0100 12.2 -15.1 93 10.5 11.9 SW | 226 57.5 111.0 SW | 230 12.1 12.3 111.0
3/4/24 - 0000 12.0 -13.9 93 10.3 11.7 SW | 224 48.8 99.0 W | 275 9.7 13.5 137.4
3/3/24 - 2300 11.8 -13.2 93 10.1 11.5 SW | 217 43.9 99.1 SW | 228 9.7 13.5 137.4
3/3/24 - 2200 12.2 -12.3 93 10.5 11.9 SW | 216 42.0 98.8 SSW | 207 9.7 13.5 137.4
3/3/24 - 2100 12.4 -13.6 93 10.7 12.1 SW | 225 50.0 96.1 SW | 223 9.7 13.5 137.4
3/3/24 - 2000 12.4 -14.8 93 10.8 12.1 SW | 224 57.9 111.2 SW | 219 9.7 13.5 137.4
3/3/24 - 1900 12.2 -13.5 93 10.5 11.9 SW | 220 48.1 89.5 WSW | 258 9.7 13.5 137.4
3/3/24 - 1800 12.6 -14.8 93 11.0 12.3 SW | 228 59.1 111.2 WSW | 258 9.7 13.5 137.4
3/3/24 - 1700 12.7 -11.0 93 11.0 12.4 SSW | 193 39.4 123.0 WSW | 248 9.7 13.5 137.4
3/3/24 - 1600 12.4 -14.5 93 10.8 12.2 SW | 223 56.3 110.7 SSW | 205 9.7 13.5 137.4
3/3/24 - 1500 12.1 -14.6 93 10.4 11.8 SW | 225 53.4 107.8 W | 265 9.7 13.5 137.4
3/3/24 - 1400 11.4 -16.6 92 9.6 11.1 SW | 223 59.6 124.3 WSW | 250 9.7 13.5 137.4
3/3/24 - 1300 11.2 -15.4 92 9.4 11.0 SW | 216 50.8 124.7 SW | 231 9.7 13.5 137.4
3/3/24 - 1200 11.0 -15.4 92 9.2 10.8 SSW | 210 49.7 130.5 SW | 226 9.7 13.5 137.4
3/3/24 - 1100 11.1 -14.6 92 9.3 10.8 SSW | 203 46.0 111.6 WSW | 248 9.7 13.5 137.4
3/3/24 - 1000 10.9 -15.2 92 9.1 10.7 SSW | 211 47.8 121.1 W | 274 9.7 13.5 137.4
3/3/24 - 0900 11.0 -15.4 92 9.2 10.8 SSW | 210 50.1 137.4 SW | 223 9.7 13.5 137.4
3/3/24 - 0800 11.6 -13.5 93 9.8 11.3 SSW | 199 43.9 117.5 SW | 230 9.7 13.5 129.6
3/3/24 - 0700 11.3 -15.0 92 9.6 11.1 SSW | 200 49.9 118.4 SW | 219 9.7 13.5 129.6
3/3/24 - 0600 11.1 -15.1 92 9.3 10.8 SSW | 198 48.6 118.2 SW | 227 9.7 13.5 129.6
3/3/24 - 0500 10.3 -13.7 92 8.5 10.1 SSW | 192 37.0 111.8 SSE | 167 9.7 13.5 129.6
3/3/24 - 0400 10.2 -11.7 92 8.3 10.0 SSE | 159 28.9 91.6 S | 186 9.7 13.5 129.6
3/3/24 - 0300 10.6 -13.6 92 8.7 10.3 S | 187 38.0 121.5 W | 272 10.2 13.5 129.6
3/3/24 - 0200 12.0 -14.8 93 10.3 11.7 WSW | 248 54.2 129.6 W | 263 11.5 13.5 129.6
3/3/24 - 0100 13.0 -14.0 93 11.4 12.7 WSW | 258 58.0 125.5 WSW | 248 12.4 13.5 125.5
3/3/24 - 0000 13.7 -11.7 94 12.2 13.4 SW | 228 50.8 135.8 W | 263 9.5 19.5 169.5
3/2/24 - 2300 13.2 -9.4 94 11.7 12.9 S | 187 35.9 86.7 SSE | 162 9.5 19.5 169.5
3/2/24 - 2200 12.2 -12.8 93 10.6 12.0 SSW | 198 45.2 109.1 WSW | 244 9.5 19.5 169.5
3/2/24 - 2100 12.3 -12.6 93 10.7 12.1 SSW | 192 44.9 99.4 W | 265 9.5 19.5 169.5
3/2/24 - 2000 11.5 -12.5 93 9.8 11.3 S | 181 39.3 90.2 SW | 214 9.5 19.5 169.5
3/2/24 - 1900 10.4 -14.6 92 8.6 10.2 S | 175 41.6 104.0 S | 180 9.5 19.5 169.5
3/2/24 - 1800 9.9 -13.9 92 7.9 9.7 SSW | 204 35.4 90.1 SSW | 198 9.5 19.5 169.5
3/2/24 - 1700 10.0 -13.6 92 8.2 9.8 S | 179 35.1 83.8 SSW | 212 9.6 19.5 169.5
3/2/24 - 1600 10.1 -14.4 92 8.2 9.9 S | 184 38.5 106.1 SSW | 213 9.6 19.5 169.5
3/2/24 - 1500 10.0 -16.2 92 8.1 9.8 SW | 229 46.2 128.1 W | 275 9.6 19.5 169.5
3/2/24 - 1400 10.5 -19.4 92 8.6 10.3 W | 259 69.8 161.2 WSW | 244 9.7 19.5 169.5
3/2/24 - 1300 10.0 -15.9 92 8.1 9.8 SSW | 213 44.6 153.6 WSW | 247 9.7 19.5 169.5
3/2/24 - 1200 10.6 -15.0 92 8.7 10.4 WSW | 241 44.5 125.8 W | 278 9.7 19.5 169.5
3/2/24 - 1100 11.3 -15.7 92 9.5 11.0 WSW | 244 53.5 137.6 W | 273 11.0 19.5 169.5
3/2/24 - 1000 11.7 -12.5 93 10.0 11.4 S | 186 39.8 102.9 S | 185 11.1 19.5 169.5
3/2/24 - 0900 11.7 -13.6 93 10.0 11.4 SW | 236 45.6 121.6 W | 261 11.1 19.5 169.5
3/2/24 - 0800 11.5 -16.0 93 9.8 11.3 WSW | 243 57.7 169.5 W | 274 11.1 19.5 169.5
3/2/24 - 0700 13.5 -13.7 94 12.0 13.2 WSW | 249 60.8 150.0 WSW | 258 12.6 19.5 167.7
3/2/24 - 0600 14.2 -13.4 94 12.8 13.9 WSW | 250 65.8 163.0 WSW | 250 13.3 19.5 167.7
3/2/24 - 0500 17.0 -9.7 95 15.8 16.6 WSW | 239 68.2 167.7 W | 276 15.6 19.5 167.7
3/2/24 - 0400 18.6 -4.4 96 17.7 18.3 SSW | 193 48.2 138.4 WSW | 245 18.0 19.5 138.4
3/2/24 - 0300 18.9 -3.2 96 18.0 18.6 SSW | 192 44.3 131.4 WSW | 251 18.8 19.5 131.4
3/2/24 - 0200 19.0 -1.4 96 18.1 18.7 SSE | 155 35.5 110.7 SSW | 206 18.8 19.5 110.7
3/2/24 - 0100 19.2 -1.4 96 18.3 18.9 SSE | 154 36.8 108.5 WSW | 247 18.9 19.5 108.5
3/2/24 - 0000 18.7 -2.4 96 17.9 18.4 S | 189 38.9 117.4 W | 270 18.0 22.0 117.4
3/1/24 - 2300 18.9 -1.5 96 18.0 18.6 SE | 131 35.6 92.2 SW | 229 18.0 22.0 104.8
3/1/24 - 2200 18.9 -1.2 96 18.0 18.6 SSE | 160 34.0 93.6 SW | 234 18.0 22.0 104.8
3/1/24 - 2100 18.6 -1.6 96 17.6 18.2 ESE | 110 33.8 67.4 WNW | 293 18.0 22.0 104.8
3/1/24 - 2000 18.3 -1.3 96 17.3 18.0 SE | 140 31.1 69.2 E | 80 18.0 22.0 104.8
3/1/24 - 1900 18.6 -1.3 96 17.6 18.2 E | 86 32.7 92.5 S | 172 18.0 22.0 104.8
3/1/24 - 1800 19.5 -0.1 97 18.7 19.2 S | 186 33.0 98.9 WSW | 245 18.2 22.0 104.8
3/1/24 - 1700 19.2 -1.5 96 18.3 18.9 SE | 138 37.7 104.8 ENE | 63 18.3 22.0 104.8
3/1/24 - 1600 21.2 2.2 97 20.6 20.9 S | 169 33.2 83.7 SSW | 195 18.6 22.0 95.5
3/1/24 - 1500 21.5 3.1 98 20.9 21.2 SE | 125 31.1 64.1 WSW | 249 18.6 22.0 95.5
3/1/24 - 1400 21.4 2.8 98 20.8 21.2 SSW | 194 32.1 95.5 SW | 231 18.6 22.0 95.5
3/1/24 - 1300 21.0 3.7 97 20.4 20.7 S | 183 26.0 67.5 S | 186 18.6 21.4 76.1
3/1/24 - 1200 20.9 4.4 97 20.2 20.6 SSE | 153 23.2 59.6 WSW | 257 18.6 21.2 76.1
3/1/24 - 1100 20.3 2.4 97 19.6 20.0 SE | 132 27.2 76.1 WNW | 288 18.6 20.8 76.1
3/1/24 - 1000 19.8 2.3 97 19.0 19.5 SE | 134 25.4 65.1 E | 81 18.6 20.0 73.4
3/1/24 - 0900 19.7 3.1 97 18.9 19.4 SE | 141 22.4 64.6 WSW | 255 18.6 20.0 73.4
3/1/24 - 0800 19.3 2.1 96 18.5 19.0 ESE | 121 23.8 71.9 W | 270 18.6 19.5 73.4
3/1/24 - 0700 19.1 1.6 96 18.2 18.8 SSE | 166 24.3 69.0 SSW | 192 18.6 19.5 73.4
3/1/24 - 0600 18.8 2.4 96 17.9 18.5 ESE | 113 20.9 61.4 W | 259 18.6 19.5 73.4
3/1/24 - 0500 19.0 1.6 96 18.1 18.6 ESE | 106 23.8 56.2 NE | 54 18.6 19.5 73.4
3/1/24 - 0400 18.9 1.5 96 18.0 18.6 ESE | 119 24.1 59.0 W | 274 18.6 19.5 73.4
3/1/24 - 0300 19.1 1.7 96 18.2 18.8 E | 99 23.9 50.7 S | 184 18.9 19.5 73.4
3/1/24 - 0200 19.2 3.0 96 18.4 18.9 SE | 144 20.7 51.2 WSW | 246 18.9 19.5 73.4
3/1/24 - 0100 19.1 2.0 96 18.2 18.8 S | 186 23.2 73.4 SW | 227 18.9 19.4 73.4
3/1/24 - 0000 19.9 0.6 97 19.1 19.6 SSW | 208 32.2 92.4 SSW | 206 19.3 24.2 104.6
2/29/24 - 2300 20.3 -0.3 97 19.5 20.0 SW | 234 38.7 104.6 WSW | 255 19.6 24.2 104.6
2/29/24 - 2200 21.3 1.7 97 20.6 21.0 SW | 224 35.8 92.6 SW | 228 19.9 24.2 96.5
2/29/24 - 2100 21.6 2.4 98 21.0 21.3 WSW | 237 34.4 89.8 WSW | 243 19.9 24.2 96.5
2/29/24 - 2000 21.7 4.3 98 21.2 21.4 SSW | 212 27.4 81.7 SSW | 198 19.9 24.2 96.5
2/29/24 - 1900 22.3 4.7 98 21.8 22.0 SW | 236 28.8 64.6 WNW | 291 19.9 24.2 96.5
2/29/24 - 1800 22.7 3.9 98 22.2 22.4 SSW | 207 34.6 93.0 SW | 219 19.9 24.2 96.5
2/29/24 - 1700 22.8 5.2 98 22.3 22.5 SSE | 168 29.3 96.5 SSW | 213 19.9 24.2 96.5
2/29/24 - 1600 22.9 6.0 98 22.5 22.7 S | 184 27.3 89.8 S | 190 19.9 24.2 89.8
2/29/24 - 1500 23.5 7.0 98 23.1 23.2 S | 184 26.0 74.1 SW | 232 19.9 24.2 83.3
2/29/24 - 1400 23.9 6.3 98 23.6 23.7 S | 188 31.4 79.4 S | 190 19.9 24.2 83.3
2/29/24 - 1300 23.6 9.0 98 23.2 23.3 S | 173 19.8 80.2 SSW | 197 19.9 24.1 83.3
2/29/24 - 1200 22.5 7.0 98 22.0 22.2 SSW | 200 21.8 71.8 WNW | 297 19.9 23.8 83.3
2/29/24 - 1100 21.8 5.9 97 21.1 21.4 SSW | 202 22.2 83.3 WNW | 286 19.9 23.8 83.3
2/29/24 - 1000 20.8 3.8 95 19.6 20.3 SSW | 199 24.5 80.6 W | 275 19.9 23.8 80.6
2/29/24 - 0900 20.3 3.9 93 18.6 19.7 S | 187 22.2 65.7 WNW | 292 19.9 23.8 65.7
2/29/24 - 0800 21.0 5.7 84 16.8 19.8 SW | 214 19.7 60.9 WNW | 287 20.7 23.8 61.6
2/29/24 - 0700 21.3 6.4 81 16.5 19.9 S | 190 18.8 56.4 SSW | 208 20.7 23.8 61.6
2/29/24 - 0600 21.2 5.8 82 16.7 19.9 S | 180 20.1 57.7 W | 269 20.7 23.8 61.6
2/29/24 - 0500 21.0 3.5 86 17.5 19.9 SSW | 197 26.7 61.6 SSW | 195 20.7 23.8 61.6
2/29/24 - 0400 21.7 6.8 81 16.8 20.2 S | 176 19.1 57.1 WSW | 242 21.3 23.8 60.4
2/29/24 - 0300 22.2 10.7 81 17.2 20.6 S | 191 11.5 36.0 SSW | 206 21.8 23.8 60.4
2/29/24 - 0200 22.7 11.6 78 16.9 21.0 SSW | 197 11.0 43.8 SSW | 200 22.4 23.8 60.4
2/29/24 - 0100 23.4 8.6 76 16.8 21.4 SSW | 211 20.3 60.4 SSW | 208 23.2 23.8 60.4
2/29/24 - 0000 23.3 10.3 86 19.7 22.1 SSW | 198 15.6 44.0 WSW | 245 23.2 33.2 58.6
2/28/24 - 2300 23.5 10.5 91 21.2 22.7 SSW | 207 15.5 39.7 S | 180 23.3 33.2 58.6
2/28/24 - 2200 23.5 9.2 93 21.7 22.8 SW | 225 18.8 48.6 WSW | 244 23.3 33.2 58.6
2/28/24 - 2100 23.7 8.0 97 23.0 23.4 WSW | 254 23.5 58.6 W | 275 23.4 33.2 58.6
2/28/24 - 2000 24.2 9.0 96 23.2 23.8 SW | 228 22.5 54.1 W | 276 23.9 33.2 58.0
2/28/24 - 1900 25.0 10.8 97 24.3 24.6 SW | 232 20.0 53.0 W | 265 24.6 33.2 58.0
2/28/24 - 1800 26.1 12.9 92 24.0 25.3 SW | 214 18.0 47.7 W | 275 25.4 33.2 58.0
2/28/24 - 1700 27.4 16.6 72 19.5 24.9 SSW | 199 12.8 42.9 S | 186 25.4 33.2 58.0
2/28/24 - 1600 28.7 16.0 65 18.5 25.4 WSW | 246 18.9 52.3 WNW | 286 25.4 33.2 58.0
2/28/24 - 1500 29.8 17.5 59 17.2 25.8 SW | 228 18.5 51.3 W | 269 25.4 33.2 58.0
2/28/24 - 1400 30.7 16.8 59 18.2 26.7 WSW | 258 25.6 50.8 WNW | 296 25.4 33.2 58.0
2/28/24 - 1300 31.4 20.9 49 14.5 26.3 SSW | 201 14.8 52.7 W | 267 25.4 33.2 58.0
2/28/24 - 1200 32.0 24.1 46 13.6 26.5 S | 177 9.3 27.2 SW | 229 25.4 33.2 58.0
2/28/24 - 1100 31.4 18.6 46 13.0 26.0 SW | 215 22.3 41.2 SSW | 202 25.4 32.9 58.0
2/28/24 - 1000 29.7 14.7 48 12.3 24.7 SW | 225 28.6 43.1 SW | 219 25.4 31.3 58.0
2/28/24 - 0900 29.1 11.2 46 11.1 24.0 SW | 227 43.2 50.1 SW | 230 25.4 29.4 58.0
2/28/24 - 0800 27.7 8.4 49 10.9 23.0 SW | 230 48.2 54.7 SW | 232 25.4 29.1 58.0
2/28/24 - 0700 25.9 6.2 51 10.2 21.7 SW | 229 46.5 58.0 SW | 218 25.4 29.1 58.0
2/28/24 - 0600 26.0 7.1 50 9.7 21.6 SW | 224 41.4 51.2 SW | 226 25.6 29.1 51.2
2/28/24 - 0500 26.2 7.9 49 9.5 21.8 SW | 229 39.6 51.1 WSW | 241 25.8 29.1 51.1
2/28/24 - 0400 26.8 10.0 45 8.5 22.0 SW | 227 32.2 48.6 SW | 233 26.4 29.1 48.6
2/28/24 - 0300 27.0 9.2 47 9.3 22.3 SW | 227 37.7 47.2 WSW | 243 26.5 29.1 47.2
2/28/24 - 0200 27.8 9.8 43 8.1 22.6 SW | 232 40.8 46.5 SW | 231 27.0 29.1 46.5
2/28/24 - 0100 28.5 11.1 37 5.7 22.7 SW | 233 39.0 43.0 SW | 225 28.2 29.1 43.0
2/28/24 - 0000 28.8 11.8 35 4.7 22.8 SW | 232 37.6 42.0 SW | 231 16.1 30.8 98.9
2/27/24 - 2300 28.5 11.4 40 7.0 22.9 SW | 228 37.5 44.7 SW | 228 16.1 30.8 98.9
2/27/24 - 2200 26.4 13.5 40 5.5 21.2 SW | 227 17.5 33.7 SSW | 212 16.1 30.8 98.9
2/27/24 - 2100 25.3 19.6 38 3.3 20.1 SSE | 164 4.6 11.0 E | 95 16.1 30.8 98.9
2/27/24 - 2000 25.3 13.9 42 5.6 20.5 E | 94 13.0 17.6 E | 91 16.1 30.8 98.9
2/27/24 - 1900 24.2 14.1 52 9.0 20.3 E | 89 9.9 13.5 E | 98 16.1 30.8 98.9
2/27/24 - 1800 24.9 16.5 52 9.6 20.9 ENE | 73 7.7 13.6 ENE | 69 16.1 30.8 98.9
2/27/24 - 1700 26.5 18.2 45 8.2 21.8 ENE | 58 7.9 11.8 NE | 40 16.1 30.8 98.9
2/27/24 - 1600 27.0 16.2 41 6.7 21.9 NE | 55 12.8 20.5 ENE | 59 16.1 30.8 98.9
2/27/24 - 1500 29.0 17.6 33 3.5 22.7 NE | 51 15.3 21.9 NE | 42 16.1 30.8 98.9
2/27/24 - 1400 30.2 19.1 28 1.2 23.2 NE | 51 15.4 26.1 NE | 39 16.1 30.8 98.9
2/27/24 - 1300 29.7 19.3 32 3.4 23.2 E | 82 13.3 22.7 ENE | 60 16.1 30.8 98.9
2/27/24 - 1200 27.8 17.0 40 6.6 22.4 ENE | 78 13.0 21.5 NNE | 30 16.1 29.2 98.9
2/27/24 - 1100 24.5 15.6 75 17.4 22.4 E | 79 8.2 15.8 NE | 39 16.1 26.1 98.9
2/27/24 - 1000 22.3 - 96 21.2 21.9 WSW | 254 - 10.7 WSW | 249 16.1 23.5 98.9
2/27/24 - 0900 19.2 5.3 94 17.8 18.7 W | 273 14.8 23.1 W | 266 16.1 20.7 98.9
2/27/24 - 0800 17.3 -2.5 93 15.6 16.8 W | 273 30.5 57.4 WSW | 254 16.1 20.7 98.9
2/27/24 - 0700 16.6 -4.5 94 15.2 16.2 W | 261 34.4 50.4 WSW | 255 16.1 20.7 98.9
2/27/24 - 0600 16.6 -5.3 95 15.4 16.2 WSW | 252 38.3 60.7 WSW | 249 16.1 20.7 98.9
Max 32.0 24.1 98 24.3 26.7 - 78.0 169.5 - 28.2 33.2 169.5
Avg 18.8 -0.9 84 13.9 17.5 - 34.7 79.7 - - - -
Min 9.9 -19.4 28 1.2 9.7 - 4.6 10.7 - 9.5 12.3 43.0